| time (UTC) | temp C | wind direction | speed KPH | gust KPH | rain 1hr cm | rain 24hr cm | rain mn cm | humidity % | barometer mb |
| 20260510231624 | 22 | 68 | 16.1 | 17.7 | 0.00 | 0.00 | 0.00 | ||
| 20260510230124 | 23 | 96 | 16.1 | 11.3 | 0.00 | 0.00 | 0.00 | ||
| 20260510224624 | 22 | 104 | 12.9 | 11.3 | 0.00 | 0.00 | 0.00 | ||
| 20260510223124 | 22 | 68 | 9.7 | 8.0 | 0.00 | 0.00 | 0.00 | ||
| 20260510221624 | 22 | 66 | 17.7 | 19.3 | 0.00 | 0.00 | 0.00 | ||
| 20260510220124 | 21 | 87 | 9.7 | 12.9 | 0.00 | 0.00 | 0.00 | ||
| 20260510214625 | 22 | 80 | 6.4 | 11.3 | 0.00 | 0.00 | 0.00 | ||
| 20260510211625 | 21 | 90 | 12.9 | 8.0 | 0.00 | 0.00 | 0.00 | ||
| 20260510210125 | 21 | 93 | 11.3 | 12.9 | 0.00 | 0.00 | 0.00 | ||
| 20260510204625 | 20 | 111 | 12.9 | 11.3 | 0.00 | 0.00 | 0.00 | ||
| 20260510203125 | 22 | 91 | 11.3 | 6.4 | 0.00 | 0.00 | 0.00 | ||
| 20260510201625 | 23 | 45 | 16.1 | 12.9 | 0.00 | 0.00 | 0.00 | ||
| 20260510200125 | 22 | 79 | 9.7 | 11.3 | 0.00 | 0.00 | 0.00 | ||
| 20260510194626 | 23 | 66 | 17.7 | 14.5 | 0.00 | 0.00 | 0.00 | ||
| 20260510193126 | 23 | 98 | 8.0 | 12.9 | 0.00 | 0.00 | 0.00 | ||
| 20260510191626 | 22 | 75 | 11.3 | 12.9 | 0.00 | 0.00 | 0.00 | ||
| 20260510190126 | 22 | 110 | 14.5 | 8.0 | 0.00 | 0.00 | 0.00 | ||
| 20260510184626 | 22 | 96 | 11.3 | 14.5 | 0.00 | 0.00 | 0.00 | ||
| 20260510183126 | 22 | 70 | 16.1 | 17.7 | 0.00 | 0.00 | 0.00 | ||
| 20260510181627 | 22 | 122 | 17.7 | 8.0 | 0.00 | 0.00 | 0.00 | ||
| 20260510180126 | 22 | 60 | 14.5 | 17.7 | 0.00 | 0.00 | 0.00 | ||
| 20260510174629 | 21 | 100 | 12.9 | 12.9 | 0.00 | 0.00 | 0.00 | ||
| 20260510173127 | 21 | 107 | 14.5 | 9.7 | 0.00 | 0.00 | 0.00 | ||
| 20260510171630 | 21 | 105 | 14.5 | 12.9 | 0.00 | 0.00 | 0.00 | ||
| 20260510170128 | 21 | 76 | 16.1 | 12.9 | 0.00 | 0.00 | 0.00 | ||
| 20260510164629 | 21 | 93 | 16.1 | 12.9 | 0.00 | 0.00 | 0.00 | ||
| 20260510163132 | 21 | 104 | 14.5 | 9.7 | 0.00 | 0.00 | 0.00 | ||
| 20260510161630 | 22 | 56 | 12.9 | 19.3 | 0.00 | 0.00 | 0.00 | ||
| 20260510160133 | 22 | 93 | 12.9 | 9.7 | 0.00 | 0.00 | 0.00 | ||
| 20260510154631 | 21 | 66 | 9.7 | 14.5 | 0.00 | 0.00 | 0.00 | ||
| 20260510153132 | 19 | 98 | 11.3 | 6.4 | 0.00 | 0.00 | 0.00 | ||
| 20260510151633 | 18 | 97 | 11.3 | 6.4 | 0.00 | 0.00 | 0.00 | ||
| 20260510150134 | 17 | 77 | 6.4 | 6.4 | 0.00 | 0.00 | 0.00 | ||
| 20260510144635 | 17 | 98 | 6.4 | 3.2 | 0.00 | 0.00 | 0.00 | ||
| 20260510143136 | 17 | 52 | 9.7 | 11.3 | 0.00 | 0.00 | 0.00 | ||
| 20260510141637 | 16 | 82 | 11.3 | 12.9 | 0.00 | 0.00 | 0.00 | ||
| 20260510140137 | 16 | 86 | 0.0 | 0.0 | 0.00 | 0.00 | 0.00 | ||
| 20260510134638 | 16 | 107 | 0.0 | 1.6 | 0.00 | 0.00 | 0.00 | ||
| 20260510130142 | 16 | 135 | 16.1 | 19.3 | 0.00 | 0.00 | 0.00 | ||
| 20260510124642 | 16 | 118 | 11.3 | 8.0 | 0.00 | 0.00 | 0.00 | ||
| 20260510121645 | 16 | 121 | 8.0 | 12.9 | 0.00 | 0.00 | 0.00 | ||
| 20260510120145 | 14 | 79 | 1.6 | 1.6 | 0.00 | 0.00 | 0.00 | ||
| 20260510114645 | 15 | 122 | 0.0 | 0.0 | 0.00 | 0.00 | 0.00 | ||
| 20260510113146 | 15 | 146 | 0.0 | 0.0 | 0.00 | 0.00 | 0.00 | ||
| 20260510111647 | 15 | 173 | 0.0 | 0.0 | 0.00 | 0.00 | 0.00 | ||
| 20260510110147 | 16 | 124 | 0.0 | 0.0 | 0.00 | 0.00 | 0.00 | ||
| 20260510104648 | 15 | 122 | 1.6 | 0.0 | 0.00 | 0.00 | 0.00 | ||
| 20260510103149 | 14 | 193 | 0.0 | 0.0 | 0.00 | 0.00 | 0.00 | ||
| 20260510101649 | 14 | 82 | 0.0 | 0.0 | 0.00 | 0.00 | 0.00 | ||
| 20260510100150 | 15 | 82 | 0.0 | 0.0 | 0.00 | 0.00 | 0.00 | ||
| 20260510094651 | 15 | 82 | 0.0 | 0.0 | 0.00 | 0.00 | 0.00 | ||
| 20260510093152 | 15 | 125 | 3.2 | 0.0 | 0.00 | 0.00 | 0.00 | ||
| 20260510091652 | 13 | 115 | 0.0 | 0.0 | 0.00 | 0.00 | 0.00 | ||
| 20260510090153 | 13 | 159 | 0.0 | 0.0 | 0.00 | 0.00 | 0.00 | ||
| 20260510084654 | 13 | 159 | 0.0 | 0.0 | 0.00 | 0.00 | 0.00 | ||
| 20260510083154 | 15 | 159 | 0.0 | 0.0 | 0.00 | 0.00 | 0.00 | ||
| 20260510081655 | 16 | 159 | 0.0 | 0.0 | 0.00 | 0.00 | 0.00 | ||
| 20260510074656 | 17 | 152 | 0.0 | 0.0 | 0.00 | 0.00 | 0.00 | ||
| 20260510073157 | 17 | 152 | 0.0 | 0.0 | 0.00 | 0.00 | 0.00 | ||
| 20260510071657 | 17 | 152 | 0.0 | 0.0 | 0.00 | 0.00 | 0.00 | ||
| 20260510070158 | 18 | 152 | 0.0 | 0.0 | 0.00 | 0.00 | 0.00 | ||
| 20260510064658 | 18 | 152 | 0.0 | 0.0 | 0.00 | 0.00 | 0.00 | ||
| 20260510063159 | 18 | 219 | 0.0 | 0.0 | 0.00 | 0.00 | 0.00 | ||
| 20260510061659 | 19 | 62 | 0.0 | 0.0 | 0.00 | 0.00 | 0.00 | ||
| 20260510060159 | 19 | 62 | 0.0 | 0.0 | 0.00 | 0.00 | 0.00 | ||
| 20260510054700 | 18 | 62 | 0.0 | 0.0 | 0.00 | 0.00 | 0.00 | ||
| 20260510053200 | 18 | 62 | 0.0 | 0.0 | 0.00 | 0.00 | 0.00 | ||
| 20260510051700 | 18 | 62 | 0.0 | 0.0 | 0.00 | 0.00 | 0.00 | ||
| 20260510050201 | 19 | 62 | 0.0 | 0.0 | 0.00 | 0.00 | 0.00 | ||
| 20260510040203 | 22 | 162 | 17.7 | 12.9 | 0.00 | 0.00 | 0.00 | ||
| 20260510034702 | 23 | 125 | 4.8 | 4.8 | 0.00 | 0.00 | 0.00 | ||
| 20260510031703 | 23 | 239 | 1.6 | 1.6 | 0.00 | 0.00 | 0.00 | ||
| 20260510030202 | 23 | 232 | 6.4 | 9.7 | 0.00 | 0.00 | 0.00 | ||
| 20260510023202 | 23 | 233 | 3.2 | 4.8 | 0.00 | 0.00 | 0.00 | ||
| 20260510020202 | 23 | 238 | 3.2 | 0.0 | 0.00 | 0.00 | 0.00 | ||
| 20260510014702 | 23 | 187 | 0.0 | 0.0 | 0.00 | 0.00 | 0.00 | ||
| 20260510013203 | 24 | 233 | 4.8 | 3.2 | 0.00 | 0.00 | 0.00 | ||
| 20260510011702 | 25 | 245 | 0.0 | 0.0 | 0.00 | 0.00 | 0.00 | ||
| 20260510004701 | 26 | 166 | 1.6 | 1.6 | 0.00 | 0.00 | 0.00 | ||
| 20260510003200 | 27 | 195 | 6.4 | 12.9 | 0.00 | 0.00 | 0.00 | ||
| 20260510001700 | 28 | 231 | 11.3 | 6.4 | 0.00 | 0.00 | 0.00 | ||
| 20260509234659 | 30 | 263 | 3.2 | 0.0 | 0.00 | 0.00 | 0.00 | ||
| 20260509233159 | 30 | 271 | 3.2 | 1.6 | 0.00 | 0.00 | 0.00 |